Regional Weather Roundup
Issued by NWS

Home | Current Version | Previous Version | Text Only | Print | Product List | Glossary On
Versions: 1 2 3 4 5 6 7 8 9 10 11 12 13 14 15 16 17 18 19 20 21 22 23 24 25 26 27 28 29 30 31 32 33 34 35 36 37 38 39 40 41 42 43 44 45 46 47 48 49 50
000
ASHW40 PHFO 260910
RWRHI

WEATHER ROUNDUP FOR HAWAII
NATIONAL WEATHER SERVICE HONOLULU HI
1100 PM HST FRI JUL 25 2014

THIS IS AN AUTOMATED REPORT THAT HAS NOT BEEN QUALITY CONTROLLED.

NOTE..."FAIR" INDICATES FEW OR NO CLOUDS BELOW 12,000 FEET WITH NO
SIGNIFICANT WEATHER AND/OR OBSTRUCTIONS TO VISIBILITY.

* - THESE SITES REPORT LIMITED FIELDS

HIZ001>004-261000-
KAUAI-NIIHAU-

CITY           SKY/WX    TMP DP  RH WIND       PRES   REMARKS
LIHUE APT      CLOUDY    78  68  71 NE14      30.02R
PORT ALLEN*      N/A     77 N/A N/A E12         N/A
POIPU*           N/A     79 N/A N/A NE8G17      N/A
PRINCEVILLE*   NOT AVBL
KOKOLE POINT*  NOT AVBL
MOLOAA DAIRY*  NOT AVBL
WAIMEA HTS*    NOT AVBL
PUU OPAE*      NOT AVBL
PUU LUA*       NOT AVBL
MAKAHA RIDGE*  NOT AVBL
$$

HIZ005>011-261000-
OAHU-

CITY           SKY/WX    TMP DP  RH WIND       PRES   REMARKS
HONOLULU       PTCLDY    79  67  66 NE10      29.99S
KALAELOA       CLEAR     75  65  70 VRB3      30.01R
KANEOHE MCB    MOCLDY    77  66  68 E8        30.00S
WHEELER FIELD  FAIR      69  65  85 W6        30.01S
BELLOWS*       NOT AVBL
KAHUKU*        NOT AVBL
WHEELER*       NOT AVBL
WAIANAE HARBOR NOT AVBL
DILLINGHAM*      N/A     72  66  83 E2          N/A
KAHUKU TRN*      N/A     73  68  83 E6G13       N/A
KAWAILOA*      NOT AVBL
KII*             N/A     79  70  73 CALM        N/A
MAKUA RANGE*     N/A     77  63  61 E7G14       N/A
OAHU FOREST NW NOT AVBL
SCHOFIELD BRK*   N/A     70  64  83 MISG        N/A
SCHOFIELD S*   NOT AVBL
WAIANAE VLY*   NOT AVBL
KUAOKALA*      NOT AVBL
HONOULIUULI*   NOT AVBL
MOKUOLOE IS*     N/A    N/A N/A N/A MISG        N/A
PALEHUA*       NOT AVBL
WAIAWA PHB*    NOT AVBL
$$

HIZ012>013-261000-
MOLOKAI-

CITY           SKY/WX    TMP DP  RH WIND       PRES   REMARKS
MOLOKAI AIRPT  CLOUDY    76  68  76 NE8       30.00S
KALAUPAPA      NOT AVBL
MAKAPULAPAI*   NOT AVBL
MOLOKAI 1*     NOT AVBL
PUU ALII*      NOT AVBL
$$

HIZ016-261000-
KAHOOLAWE-

CITY           SKY/WX    TMP DP  RH WIND       PRES   REMARKS
KAHOOLAWE*     NOT AVBL
HAKIOAWA*      NOT AVBL
HONOKANAIA*      N/A     79  68  69 NE13G28     N/A
KANELOA*         N/A     73  68  83 E15G26      N/A
KEALIALALO*    NOT AVBL
LUA MAKIKA*    NOT AVBL
$$

HIZ014>015-261000-
LANAI-

CITY           SKY/WX    TMP DP  RH WIND       PRES   REMARKS
LANAI CITY     FAIR      72  68  87 NE14      30.05S
LANAI 1*       NOT AVBL
$$

HIZ017>028-261000-
MAUI-

CITY           SKY/WX    TMP DP  RH WIND       PRES   REMARKS
KAHULUI        PTCLDY    76  68  76 NE14      29.99
KAPALUA-W MAUI NOT AVBL
HANA AIRPORT   MOCLDY    75  70  83 SE3       30.04S
HANA*          NOT AVBL
HALEAKALA SUMM   N/A     48  -2  12 SE20        N/A
MAALAEA BAY*   NOT AVBL
HALEAKALA*     NOT AVBL
KAUPO GAP*     NOT AVBL
KULA 1*          N/A     48  46  93 E3          N/A
$$

HIZ023>026-261000-
BIG ISLAND OF HAWAII COAST AND LOWER SLOPES-

CITY           SKY/WX    TMP DP  RH WIND       PRES   REMARKS
KAILUA KONA    MOCLDY    80  67  64 SE8       29.96S
HILO           PTCLDY    73  69  87 SW6       30.01S
HONOKAA*       NOT AVBL
KAWAIHAE MWT*  NOT AVBL
KAWAIHAE*        N/A     81 N/A N/A E1          N/A
SOUTH POINT*   NOT AVBL
UPOLU AIRPORT* NOT AVBL
KAMUELA*       CLOUDY    64  64 100 N9        30.10S
HAKALAU*         N/A     54  54  99 S6G12       N/A
KALOKO-HONOKO* NOT AVBL
PALI 2*          N/A     66  63  88 N12G18      N/A
KEALAKOMO*       N/A     79  70  73 NE7G17      N/A
KAUPULEHU*     NOT AVBL
KAPAPALA*        N/A     66  63  90 CALM        N/A
LOWER KAHUKU*  NOT AVBL
PUHE CS*       NOT AVBL
PUHO CS*       NOT AVBL
PTA KEAMUKU*     N/A    N/A N/A N/A E3          N/A
WAIKOLOA*      NOT AVBL
$$

HIZ027>028-261000-
BIG ISLAND OF HAWAII INTERIOR AND SUMMMITS-

CITY           SKY/WX    TMP DP  RH WIND       PRES   REMARKS
BRADSHAW FIELD PTCLDY    54  51  87 W3        30.32F
MK VISITOR CEN NOT AVBL
MAUNA KEA*       N/A     39 -15   9 S14         N/A
MAUNA LOA*     NOT AVBL
MAUNA LOA 1*   NOT AVBL
PTA KIPUKA*      N/A     59  57  94 S1G7        N/A
PTA RANGE 17*    N/A     59  54  82 SE10G18     N/A
PTA WEST*        N/A     57  57 100 E2G9        N/A
NENE CABIN*    NOT AVBL
AHUMOA*        NOT AVBL
PTA PORTABLE*  NOT AVBL
PUU MALI*      NOT AVBL
$$

HIC003-261000-
NORTHWEST ISLANDS-

CITY           SKY/WX    TMP DP  RH WIND       PRES   REMARKS
MIDWAY ISLAND  PTCLDY    82  73  74 SE10      30.07R
MIDWAY NOS*    NOT AVBL
FRENCH FRIGATE NOT AVBL
$$

PHZ110>124-180-261000-
BUOY REPORTS

STATION/POSITION TIME  TEMP    WIND        PRES    WAVE   SWELL
                       AIR SEA DIR/SP/G            HT/PER HT/DIR
                 (UTC) (F)     (DEG/KT/KT) (MB)    (FT/S) (FT/D)
BUOY 51001       NOT AVBL
BUOY 51101       NOT AVBL
BUOY 51100       0900   77 77   90/ 14/ 16 1017.0R
BUOY 51003       0800   80 81   80/ 10/ 14 1014.8R   6/ 7   5
BUOY 51004       0751   79 80   80/ 16/ 19 1014.0R   7/ 9   5/110
BARBERS PT BUOY  NOT AVBL
WAIMEA BAY BUOY  0900      80                N/A     3/ 7
KAILUA BAY BUOY  0900      80                N/A     5/ 8
LANAI BUOY       0900      80                N/A     2/15   2/200
BARBERS PT 2     0900      81                N/A     4/ 6   2/170
PAUWELA MAUI     0900      79                N/A     5/ 8
HILO             NOT AVBL
KANEOHE BAY BUOY 0900      80                N/A     4/ 8
HANALEI KAUAI    NOT AVBL
KAHULUI HARBOR   0900   77 80   50/ 11/ 15 1015.4F
HONOLULU HARBOR  0900   78      60/  3/  7 1015.8F
KILO NALU        NOT AVBL
HILO HARBOR      0900   73     200/  3/  6 1015.6F
MOKUOLOE         0900      82              1016.2S
NAWILIWILI       0900      81                N/A
WHOTS BUOY       NOT AVBL
BUOY 51028       NOT AVBL
$$

......................KEY........................................
  SKY/WX - SKY CONDITIONS/PRESENT WEATHER
  TMP    - TEMPERATURE IN FAHRENHEIT
  DWPT   - DEWPOINT IN FAHRENHEIT
  RH     - RELATIVE HUMIDITY IN PERCENT
  WIND   - DIRECTION AND SPEED /MPH FOR ISLANDS...KTS FOR BUOYS/
  PRES   - MEAN SEA LEVEL PRESSURE IN INCHES OF HG
  VSB    - VISIBILITY IN MILES
  HX     - HEAT INDEX
  WCI    - WIND CHILL INDEX
  VRB    - VARIABLE WIND DIRECTION
  N/A    - NOT AVAILABLE


USA.gov is the U.S. government's official web portal to all federal, state and local government web resources and services.